Time,TemperatureF,DewpointF,PressureIn,WindDirection,WindDirectionDegrees,WindSpeedMPH,WindSpeedGustMPH,Humidity,HourlyPrecipIn,Conditions,Clouds,dailyrainin,SolarRadiationWatts/m^2,SoftwareType,DateUTC
2013-05-23 00:00:00,68.0,11.0,29.89,SE,127,6.0,8.0,11,-99.99,,,-99.99,0.010000,,2013-05-23 06:00:00,
2013-05-23 00:52:00,68.0,11.0,29.89,SE,127,6.0,8.0,11,-99.99,,,-99.99,0.010000,,2013-05-23 06:52:00,
2013-05-23 02:00:00,65.0,12.0,29.90,SE,135,5.0,8.0,12,-99.99,,,-99.99,0.000000,,2013-05-23 08:00:00,
2013-05-23 02:52:00,65.0,12.0,29.90,SE,135,5.0,8.0,12,-99.99,,,-99.99,0.000000,,2013-05-23 08:52:00,
2013-05-23 03:00:00,63.0,11.0,29.91,East,94,5.0,8.0,13,-99.99,,,-99.99,0.040000,,2013-05-23 09:00:00,
2013-05-23 03:53:00,63.0,11.0,29.91,East,94,5.0,8.0,13,-99.99,,,-99.99,0.040000,,2013-05-23 09:53:00,
2013-05-23 04:00:00,68.0,14.0,29.92,East,101,5.0,8.0,12,-99.99,,,-99.99,0.040000,,2013-05-23 10:00:00,
2013-05-23 04:52:00,68.0,14.0,29.92,East,101,5.0,8.0,12,-99.99,,,-99.99,0.040000,,2013-05-23 10:52:00,
2013-05-23 05:00:00,66.0,14.0,29.92,ESE,119,4.0,9.0,13,-99.99,,,-99.99,0.020000,,2013-05-23 11:00:00,
2013-05-23 05:52:00,66.0,14.0,29.92,ESE,119,4.0,9.0,13,-99.99,,,-99.99,0.020000,,2013-05-23 11:52:00,
2013-05-23 06:00:00,64.0,12.0,29.93,SE,137,4.0,7.0,13,-99.99,,,-99.99,0.540000,,2013-05-23 12:00:00,
2013-05-23 06:52:00,64.0,12.0,29.93,SE,137,4.0,7.0,13,-99.99,,,-99.99,0.540000,,2013-05-23 12:52:00,
2013-05-23 07:00:00,64.0,12.0,29.95,SE,136,5.0,8.0,13,-99.99,,,-99.99,38.509998,,2013-05-23 13:00:00,
2013-05-23 07:52:00,64.0,12.0,29.95,SE,136,5.0,8.0,13,-99.99,,,-99.99,38.509998,,2013-05-23 13:52:00,
2013-05-23 08:00:00,76.0,16.0,29.96,SSE,158,3.0,7.0,10,-99.99,,,-99.99,244.199997,,2013-05-23 14:00:00,
2013-05-23 08:52:00,76.0,16.0,29.96,SSE,158,3.0,7.0,10,-99.99,,,-99.99,244.199997,,2013-05-23 14:52:00,
2013-05-23 09:00:00,81.0,17.0,29.97,South,177,7.0,7.0,9,-99.99,,,-99.99,475.000000,,2013-05-23 15:00:00,
2013-05-23 09:53:00,81.0,17.0,29.97,South,177,7.0,7.0,9,-99.99,,,-99.99,475.000000,,2013-05-23 15:53:00,
2013-05-23 10:00:00,84.0,19.0,29.97,South,185,4.0,11.0,9,-99.99,,,-99.99,684.900024,,2013-05-23 16:00:00,
2013-05-23 10:52:00,84.0,19.0,29.97,South,185,4.0,11.0,9,-99.99,,,-99.99,684.900024,,2013-05-23 16:52:00,
2013-05-23 11:00:00,87.0,19.0,29.95,South,187,4.0,11.0,8,-99.99,,,-99.99,866.000000,,2013-05-23 17:00:00,
2013-05-23 11:53:00,87.0,19.0,29.95,South,187,4.0,11.0,8,-99.99,,,-99.99,866.000000,,2013-05-23 17:53:00,
2013-05-23 12:00:00,89.0,20.0,29.94,South,189,6.0,11.0,8,-99.99,,,-99.99,987.000000,,2013-05-23 18:00:00,
2013-05-23 12:52:00,89.0,20.0,29.94,South,189,6.0,11.0,8,-99.99,,,-99.99,987.000000,,2013-05-23 18:52:00,
2013-05-23 13:00:00,91.0,21.0,29.93,SSW,192,10.0,13.0,8,-99.99,,,-99.99,1008.000000,,2013-05-23 19:00:00,
2013-05-23 13:52:00,91.0,21.0,29.93,SSW,192,10.0,13.0,8,-99.99,,,-99.99,1008.000000,,2013-05-23 19:52:00,
2013-05-23 14:00:00,93.0,23.0,29.91,South,180,10.0,20.0,8,-99.99,,,-99.99,1048.000000,,2013-05-23 20:00:00,
2013-05-23 14:52:00,93.0,23.0,29.91,South,180,10.0,20.0,8,-99.99,,,-99.99,1048.000000,,2013-05-23 20:52:00,
2013-05-23 15:00:00,93.0,23.0,29.89,SSW,198,12.0,-999.0,8,-99.99,,,-99.99,1000.000000,,2013-05-23 21:00:00,
2013-05-23 15:53:00,93.0,23.0,29.89,SSW,198,12.0,-999.0,8,-99.99,,,-99.99,1000.000000,,2013-05-23 21:53:00,
2013-05-23 16:00:00,95.0,21.0,29.87,SW,232,11.0,21.0,7,-99.99,,,-99.99,892.000000,,2013-05-23 22:00:00,
2013-05-23 16:52:00,95.0,21.0,29.87,SW,232,11.0,21.0,7,-99.99,,,-99.99,892.000000,,2013-05-23 22:52:00,
2013-05-23 17:00:00,95.0,21.0,29.84,WSW,247,15.0,22.0,7,-99.99,,,-99.99,742.400024,,2013-05-23 23:00:00,
2013-05-23 17:52:00,95.0,21.0,29.84,WSW,247,15.0,22.0,7,-99.99,,,-99.99,742.400024,,2013-05-23 23:52:00,
2013-05-23 18:00:00,94.0,17.0,29.84,SW,236,15.0,28.0,6,-99.99,,,-99.99,527.900024,,2013-05-24 00:00:00,
2013-05-23 18:52:00,94.0,17.0,29.84,SW,236,15.0,28.0,6,-99.99,,,-99.99,527.900024,,2013-05-24 00:52:00,
2013-05-23 19:00:00,93.0,20.0,29.84,WSW,242,13.0,27.0,7,-99.99,,,-99.99,297.899994,,2013-05-24 01:00:00,
2013-05-23 19:52:00,93.0,20.0,29.84,WSW,242,13.0,27.0,7,-99.99,,,-99.99,297.899994,,2013-05-24 01:52:00,
2013-05-23 20:00:00,89.0,17.0,29.87,West,276,12.0,21.0,7,-99.99,,,-99.99,117.099998,,2013-05-24 02:00:00,
2013-05-23 20:52:00,89.0,17.0,29.87,West,276,12.0,21.0,7,-99.99,,,-99.99,117.099998,,2013-05-24 02:52:00,
2013-05-23 21:00:00,82.0,15.0,29.90,WNW,290,6.0,19.0,8,-99.99,,,-99.99,2.570000,,2013-05-24 03:00:00,
2013-05-23 21:53:00,82.0,15.0,29.90,WNW,290,6.0,19.0,8,-99.99,,,-99.99,2.570000,,2013-05-24 03:53:00,
2013-05-23 22:00:00,71.0,12.0,29.93,ENE,78,2.0,13.0,10,-99.99,,,-99.99,0.000000,,2013-05-24 04:00:00,
2013-05-23 22:53:00,71.0,12.0,29.93,ENE,78,2.0,13.0,10,-99.99,,,-99.99,0.000000,,2013-05-24 04:53:00,
2013-05-23 23:00:00,77.0,41.0,29.95,ESE,104,8.0,-999.0,28,-99.99,,,-99.99,0.000000,,2013-05-24 05:00:00,
2013-05-23 23:52:00,77.0,41.0,29.95,ESE,104,8.0,-999.0,28,-99.99,,,-99.99,0.000000,,2013-05-24 05:52:00,